User: anonymous   Login
Location: Aalen
(48.8330°N, 10.1000°E)
Time: 14:26:47
(UTC+02:00)
Language:

BEESAT - Orbit

View from above orbital plane
View from above orbital plane
View from above satellite
View from above satellite

Ground track
Ground track

The orbit data is extracted from the following two-line orbital elements,

1 35933U 09051C   21264.07808050  .00000140  00000-0  42472-4 0  9999
2 35933  98.5918 108.8626 0006009 156.4222 203.7251 14.56631914637032
Epoch (UTC): 21 September 2021 01:52:26
Eccentricity: 0.0006009
inclination: 98.5918°
perigee height: 700 km
apogee height: 708 km
right ascension of ascending node: 108.8626°
argument of perigee: 156.4222°
revolutions per day: 14.56631914
mean anomaly at epoch: 203.7251°
orbit number at epoch: 63703

The dashed part of the orbit path shows where the satellite is in the earth's shadow,  

DLR